Regional Weather Roundup
Issued by NWS

Home | Current Version | Previous Version | Graphics & Text | Print | Product List | Glossary On
Versions: 1 2 3 4 5 6 7 8 9 10 11 12 13 14 15 16 17 18 19 20 21 22 23 24 25 26 27 28 29 30 31 32 33 34 35 36 37 38 39 40 41 42 43 44 45 46 47 48 49 50
000
ASUS43 KMKX 240520
RWRWI

WISCONSIN REGIONAL WEATHER ROUNDUP
NATIONAL WEATHER SERVICE MILWAUKEE/SULLIVAN WI
1200 AM CDT TUE APR 24 2018

NOTE: "FAIR" INDICATES FEW OR NO CLOUDS BELOW 12,000 FEET WITH NO
SIGNIFICANT WEATHER AND/OR OBSTRUCTIONS TO VISIBILITY.

WIZ001-002-006>008-014>016-023>028-240600-
NORTHWEST WISCONSIN

CITY           SKY/WX    TMP DP  RH WIND       PRES   REMARKS
SUPERIOR ARPT  FAIR      40  35  80 SW3       30.11S
ASHLAND        FAIR      48  29  47 W8        30.11S
HAYWARD        FAIR      35  28  75 CALM      30.13S
SIREN          FAIR      40  32  73 CALM      30.13S
CUMBERLAND     FAIR      37  32  81 CALM      30.13S
RICE LAKE      FAIR      38  35  90 CALM      30.15S
CHETEK         FAIR      38  34  84 CALM      30.13S
LADYSMITH      FAIR      38  31  76 CALM      30.15S
EAU CLAIRE     FAIR      45  32  60 CALM      30.12S
MENOMONIE      FAIR      46  34  63 CALM      30.13S
NEW RICHMOND   FAIR      42  37  80 CALM      30.14S
OSCEOLA        FAIR      43  35  73 CALM      30.16S
$$

WIZ003>005-009-010-017-018-240600-
NORTH CENTRAL WISCONSIN

CITY           SKY/WX    TMP DP  RH WIND       PRES   REMARKS
MANITOWISH WTR FAIR      33  27  77 CALM      30.13S
ARBOR VITAE    FAIR      38  28  66 CALM      30.13S
WOODRUFF       FAIR      38  28  66 CALM      30.13S
RHINELANDER    FAIR      37  28  70 CALM      30.13S
EAGLE RIVER    FAIR      33  25  70 CALM      30.12S
LAND O LAKES   FAIR      31  24  76 CALM      30.15R
PHILLIPS       FAIR      34  29  82 CALM      30.13S
TOMAHAWK       FAIR      32  24  73 CALM      30.14S
MEDFORD        FAIR      39  32  76 CALM      30.13S
MERRILL        FAIR      34  29  79 CALM      30.14S
$$

WIZ029-030-035-036-043>047-240600-
CENTRAL WISCONSIN

CITY           SKY/WX    TMP DP  RH WIND       PRES   REMARKS
WAUSAU         FAIR      41  30  65 CALM      30.12S
MOSINEE        FAIR      45  23  42 CALM      30.14S
MARSHFIELD     FAIR      44  30  57 CALM      30.12S
STEVENS POINT  FAIR      34  25  69 CALM      30.13F
WAUPACA        FAIR      39  32  75 CALM      30.13S
WAUTOMA        FAIR      37  28  70 CALM      30.13F
WISC RAPIDS    FAIR      40  25  55 CALM      30.13F
CAMP DOUGLAS   NOT AVBL
$$

WIZ011>013-019>022-031-037>040-048>050-240600-
NORTHEAST WISCONSIN

CITY           SKY/WX    TMP DP  RH WIND       PRES   REMARKS
ANTIGO         FAIR      37  31  79 CALM      30.14F
SHAWANO        FAIR      38  32  77 CALM      30.14R
OCONTO         FAIR      36  28  73 CALM      30.14R
STURGEON BAY   FAIR      41  30  65 E3        30.13F
GREEN BAY      FAIR      47  31  53 CALM      30.13S
MANITOWOC      FAIR      45  31  58 NW5       30.13F
APPLETON       FAIR      50  27  40 CALM      30.11F
CLINTONVILLE   FAIR      40  30  67 CALM      30.13S
OSHKOSH        FAIR      48  33  56 CALM      30.12F
$$

WIZ032>034-041-042-053>061-240600-
SOUTHWEST WISCONSIN

CITY           SKY/WX    TMP DP  RH WIND       PRES   REMARKS
LA CROSSE      FAIR      49  34  56 CALM      30.12R
SPARTA         FAIR      37  29  73 CALM      30.14S
VIROQUA        FAIR      50  30  45 E5        30.12S
BOSCOBEL       FAIR      41  32  70 CALM      30.12S
PRAIRIE DU CHI FAIR      46  32  58 CALM      30.11S
PLATTEVILLE    FAIR      51  34  52 NE8       30.11S
$$

WIZ056-057-062-063-064-067-068-240600-
SOUTH CENTRAL WISCONSIN

CITY           SKY/WX    TMP DP  RH WIND       PRES   REMARKS
REEDSBURG      FAIR      45  32  61 CALM      30.12S
BARABOO/DELLS  FAIR      39  31  72 CALM      30.12S
LONE ROCK      FAIR      41  35  79 CALM      30.12S
MINERAL POINT  FAIR      52  32  46 E6        30.11S
MADISON        FAIR      47  33  58 N3        30.11F
MIDDLETON      FAIR      43  36  75 CALM      30.12S
WATERTOWN      FAIR      41  33  71 CALM      30.11S
MONROE         FAIR      50  28  43 NE6       30.10S
JANESVILLE     FAIR      50  28  43 CALM      30.11S
$$

WIZ051-052-058>065-066-070>072-240600-
SOUTHEAST WISCONSIN

CITY           SKY/WX    TMP DP  RH WIND       PRES   REMARKS
MILWAUKEE      MOCLDY    49  27  42 CALM      30.11S
WAUKESHA       FAIR      46  25  42 N3        30.11F
MILWAUKEE/TIMM FAIR      48  21  34 N3        30.11S
RACINE         FAIR      44  31  60 NE5       30.13S
BURLINGTON     FAIR      48  27  44 CALM      30.11S
KENOSHA        FAIR      45  30  55 NE6       30.11S
FOND DU LAC    FAIR      41  35  79 CALM      30.12F
SHEBOYGAN      FAIR      46  28  49 N6        30.11F
WEST BEND      FAIR      46  27  46 CALM      30.10F
JUNEAU         FAIR      47  29  51 CALM      30.12F
$$

LSZ147-162-240600-
LAKE SUPERIOR

STATION/POSITION TIME  TEMP    WIND        PRES    WAVE
                       AIR SEA DIR/SP/G            HT/PER
                 (UTC) (F)     (DEG/KT/KT) (MB)    (FT/S)
DEVILS ISLAND    0500   56     260/  8/  9 1019.5S
SAXON HARBOR     0430   39     200/  4/  6 1018.6S
$$

LMZ867-665-643>646-240600-
LAKE MICHIGAN

STATION/POSITION TIME  TEMP    WIND        PRES    WAVE
                       AIR SEA DIR/SP/G            HT/PER
                 (UTC) (F)     (DEG/KT/KT) (MB)    (FT/S)
NORTHPORT PIER   0440   39                 1020.3F
KEWAUNEE LAKESHO 0454   43     320/  2/  4 1019.3F
SHEBOYGAN LAKESH 0500   47     360/ 11/ 13 1019.8F
PORT WASHINGTON  0440   50     340/  5/ 10 1020.3F
MILWAUKEE LAKESH 0500   49      50/  1/  2   N/A
KENOSHA   LAKESH 0500   44                 1019.3
$$

TC  - TEMPERATURE IN CELSIUS
VSB - VISIBILITY IN STATUTE MILES
WCI - WIND CHILL INDEX
HX  - HEAT INDEX





USA.gov is the U.S. government's official web portal to all federal, state and local government web resources and services.